time_stamp(utc),avg(mph),gust(mph),direction(deg),12m_air_temp(f),sonic_u(cm/s),sonic_v(cm/s),sonic_w(cm/s),pressure,2m_air_temp(f),pyranometer(W/m^2)
"2016-09-08 00:00:49+00",3.7,4.7,,74.3,132,76,14,1013.68,73.8,0
"2016-09-08 00:05:49+00",1.1,1.1,,74.2,7,-13,13,1013.72,73.7,0
"2016-09-08 00:10:49+00",0.8,1.8,,74.2,-23,3,-4,1013.79,73.7,0
"2016-09-08 00:15:49+00",2.5,3.5,,74.2,74,54,-1,1013.87,73.7,0
"2016-09-08 00:20:49+00",1.2,2.2,,74.2,-1,42,6,1013.8,73.7,0
"2016-09-08 00:25:49+00",4.2,5.2,,74.2,-173,-74,17,1013.79,73.8,0
"2016-09-08 00:30:49+00",5.2,5.2,,74.1,-206,-65,10,1013.9,73.8,0
"2016-09-08 00:35:49+00",3.9,3.9,,73.9,-155,-80,8,1013.86,73.8,0
"2016-09-08 00:40:49+00",3.7,4.7,,73.8,-128,-85,5,1013.8,73.6,0
"2016-09-08 00:45:49+00",5.0,6.0,,73.7,-211,-79,12,1013.81,73.5,0
"2016-09-08 00:50:49+00",2.5,2.5,,74.2,-95,2,20,1013.86,73.4,0
"2016-09-08 00:55:49+00",4.5,5.5,,74.5,-171,-99,26,1013.95,73.4,0
"2016-09-08 01:00:49+00",5.3,6.3,,74.2,-203,-116,11,1013.97,73.3,0
"2016-09-08 01:05:49+00",2.9,2.9,,74.4,-108,31,-2,1013.92,73.3,0
"2016-09-08 01:10:49+00",3.3,4.3,,74.7,-89,101,12,1014,73.2,0
"2016-09-08 01:15:49+00",2.9,2.9,,74.8,-112,46,23,1013.98,73.3,0
"2016-09-08 01:20:49+00",3.4,4.4,,74.5,-134,-38,13,1013.93,73.2,0
"2016-09-08 01:25:49+00",6.4,7.4,,74.3,-285,-112,16,1013.85,73.1,0
"2016-09-08 01:30:49+00",5.0,6.0,,74,-217,-86,14,1013.72,72.9,0
"2016-09-08 01:35:49+00",5.6,6.6,,74,-221,-70,9,1013.67,72.8,0
"2016-09-08 01:40:49+00",3.8,3.8,,74.5,-144,-40,6,1013.76,72.7,0
"2016-09-08 01:45:49+00",3.4,3.4,,74.3,-127,-71,-5,1013.84,72.5,0
"2016-09-08 01:50:49+00",3.6,3.6,,74,-128,-80,-1,1013.78,72.4,0
"2016-09-08 01:55:49+00",3.9,3.9,,73.8,-114,-102,2,1013.81,72.2,0
"2016-09-08 02:00:49+00",4.6,4.6,,73.6,-174,-98,4,1013.77,72.1,0
"2016-09-08 02:05:49+00",3.8,3.8,,73.6,-145,-80,-2,1013.78,72.1,0
"2016-09-08 02:10:49+00",3.8,3.8,,73.5,-155,-54,-3,1013.77,72,0
"2016-09-08 02:15:49+00",2.4,2.4,,73.6,-76,-55,-1,1013.57,71.9,0
"2016-09-08 02:20:49+00",3.4,3.4,,73.6,-101,-85,1,1013.66,71.9,0
"2016-09-08 02:25:49+00",3.5,3.5,,73.7,-154,-64,0,1013.7,71.8,0
"2016-09-08 02:30:49+00",3.9,3.9,,73.6,-152,-51,4,1013.64,71.7,0
"2016-09-08 02:35:49+00",4.9,4.9,,73.6,-175,-114,10,1013.67,71.6,0
"2016-09-08 02:40:49+00",4.2,4.2,,73.5,-148,-92,1,1013.62,71.6,0
"2016-09-08 02:45:49+00",4.0,4.0,,73.6,-138,-91,1,1013.62,71.5,0
"2016-09-08 02:50:49+00",5.0,5.0,,73.9,-160,-127,-5,1013.56,71.4,0
"2016-09-08 02:55:49+00",5.3,5.3,,73.7,-168,-138,-1,1013.51,71.4,0
"2016-09-08 03:00:49+00",5.6,6.6,,73.5,-190,-140,3,1013.57,71.3,0
"2016-09-08 03:05:49+00",5.4,5.4,,73.3,-167,-145,1,1013.62,71.2,0
"2016-09-08 03:10:49+00",4.7,4.7,,73.1,-151,-152,-3,1013.64,71.2,0
"2016-09-08 03:15:49+00",5.6,6.6,,73,-172,-154,-2,1013.64,71.2,0
"2016-09-08 03:20:49+00",5.6,6.6,,72.9,-177,-154,-1,1013.62,71.2,0
"2016-09-08 03:25:49+00",7.0,7.0,,72.7,-230,-190,7,1013.47,71.2,0
"2016-09-08 03:30:49+00",7.0,8.0,,72.5,-224,-193,3,1013.52,71.3,0
"2016-09-08 03:35:49+00",6.0,7.0,,72.5,-206,-155,7,1013.59,71.3,0
"2016-09-08 03:40:49+00",5.6,6.6,,72.6,-201,-133,7,1013.5,71.3,0
"2016-09-08 03:45:49+00",5.7,6.7,,72.6,-222,-125,5,1013.51,71.3,0
"2016-09-08 03:50:49+00",5.4,5.4,,72.6,-231,-90,6,1013.44,71.3,0
"2016-09-08 03:55:49+00",5.6,6.6,,72.7,-238,-90,5,1013.52,71.3,0
"2016-09-08 04:00:49+00",6.8,6.8,,72.7,-281,-98,11,1013.47,71.3,0
"2016-09-08 04:05:49+00",6.5,7.5,,72.7,-250,-145,9,1013.41,71.2,0
"2016-09-08 04:10:49+00",6.0,7.0,,72.6,-223,-138,6,1013.43,71.2,0
"2016-09-08 04:15:49+00",5.2,5.2,,72.4,-231,-100,7,1013.59,71.2,0
"2016-09-08 04:20:49+00",5.1,6.1,,72.4,-211,-103,5,1013.52,71.2,0
"2016-09-08 04:25:49+00",4.5,5.5,,72.3,-177,-50,4,1013.46,71.1,0
"2016-09-08 04:30:49+00",3.0,3.0,,72.3,-126,-48,3,1013.43,71.1,0
"2016-09-08 04:35:49+00",3.5,3.5,,72.2,-137,-32,-1,1013.44,71,0
"2016-09-08 04:40:49+00",3.6,3.6,,72.3,-153,-62,2,1013.43,71,0
"2016-09-08 04:45:49+00",3.7,4.7,,72.3,-160,-73,5,1013.41,70.9,0
"2016-09-08 04:50:49+00",3.5,3.5,,72.3,-143,-21,5,1013.43,70.9,0
"2016-09-08 04:55:49+00",4.2,5.2,,72.2,-178,32,9,1013.45,71,0
"2016-09-08 05:00:49+00",5.0,5.0,,72.1,-209,55,12,1013.46,70.8,0
"2016-09-08 05:05:49+00",4.3,4.3,,72.1,-180,46,11,1013.28,70.6,0
"2016-09-08 05:10:49+00",4.0,4.0,,72.1,-164,55,9,1013.21,70.6,0
"2016-09-08 05:15:49+00",3.8,3.8,,72.1,-147,66,9,1013.23,70.6,0
"2016-09-08 05:20:49+00",4.0,4.0,,72.2,-160,71,15,1013.23,70.6,0
"2016-09-08 05:25:49+00",3.2,3.2,,72.2,-113,71,7,1013.12,70.6,0
"2016-09-08 05:30:49+00",2.8,2.8,,72.2,-97,57,3,1013.06,70.4,0
"2016-09-08 05:35:49+00",1.9,1.9,,72.3,-67,35,3,1013.02,70.4,0
"2016-09-08 05:40:49+00",2.5,2.5,,72.3,-87,48,1,1013.02,70.3,0
"2016-09-08 05:45:49+00",2.3,3.3,,72.2,-80,44,-1,1013,70.2,0
"2016-09-08 05:50:49+00",1.3,1.3,,72.2,-35,29,7,1012.99,70.2,0
"2016-09-08 05:55:49+00",0.6,0.6,,72.1,-23,7,5,1012.94,70,0
"2016-09-08 06:00:49+00",0.0,0.0,,72.1,-2,4,-1,1012.86,70,0
"2016-09-08 06:05:49+00",2.6,2.6,,72,93,42,-4,1012.72,69.9,0
"2016-09-08 06:10:49+00",1.9,2.9,,71.9,53,45,-3,1012.8,69.7,0
"2016-09-08 06:15:49+00",1.7,1.7,,72,58,17,-3,1012.85,69.4,0
"2016-09-08 06:20:49+00",0.0,0.0,,72.1,-8,-20,1,1012.92,69.3,0
"2016-09-08 06:25:49+00",1.7,1.7,,72,-67,-3,-2,1012.93,69.4,0
"2016-09-08 06:30:49+00",2.3,2.3,,71.8,-95,3,0,1012.85,69.4,0
"2016-09-08 06:35:49+00",2.7,2.7,,71.6,-110,-16,4,1012.91,69.3,0
"2016-09-08 06:40:49+00",3.1,3.1,,71.6,-122,-46,4,1012.81,69.3,0
"2016-09-08 06:45:49+00",2.9,2.9,,71.6,-113,-25,0,1012.83,69.2,0
"2016-09-08 06:50:49+00",2.2,2.2,,71.6,-85,-1,1,1012.88,69.1,0
"2016-09-08 06:55:49+00",2.2,2.2,,71.6,-89,-7,-2,1013.03,69.1,0
"2016-09-08 07:00:49+00",1.7,1.7,,71.6,-59,-18,1,1012.99,69.2,0
"2016-09-08 07:05:49+00",0.0,0.0,,71.6,-22,2,3,1013.01,69.5,0
"2016-09-08 07:10:49+00",0.0,0.0,,71.6,21,3,0,1012.91,69.7,0
"2016-09-08 07:15:49+00",2.2,2.2,,71.4,80,32,-2,1012.84,69.4,0
"2016-09-08 07:20:49+00",2.8,3.8,,71.2,107,33,0,1012.85,69.1,0
"2016-09-08 07:25:49+00",4.4,5.4,,71,180,37,10,1012.65,69,0
"2016-09-08 07:30:49+00",5.0,6.0,,70.8,205,57,16,1012.63,68.9,0
"2016-09-08 07:35:49+00",5.3,5.3,,71.1,227,30,20,1012.58,68.8,0
"2016-09-08 07:40:49+00",5.2,5.2,,71.4,222,26,17,1012.58,68.8,0
"2016-09-08 07:45:49+00",4.8,4.8,,71.6,201,31,14,1012.57,68.9,0
"2016-09-08 07:50:49+00",4.1,5.1,,71.7,166,48,15,1012.55,68.9,0
"2016-09-08 07:55:49+00",4.3,4.3,,71.5,178,48,13,1012.5,69,0
"2016-09-08 08:00:49+00",3.2,3.2,,71.3,128,27,11,1012.55,68.9,0
"2016-09-08 08:05:49+00",3.4,3.4,,71.2,135,32,4,1012.57,69.1,0
"2016-09-08 08:10:49+00",3.3,4.3,,71.2,132,24,3,1012.52,69.2,0
"2016-09-08 08:15:49+00",2.7,2.7,,71.4,102,-39,0,1012.56,69.3,0
"2016-09-08 08:20:49+00",2.0,2.0,,71.3,59,-44,2,1012.59,69.5,0
"2016-09-08 08:25:49+00",2.9,2.9,,71.4,107,-48,1,1012.65,69.8,0
"2016-09-08 08:30:49+00",2.9,2.9,,71.6,90,-67,-2,1012.57,69.8,0
"2016-09-08 08:35:49+00",3.4,3.4,,71.7,118,-73,-2,1012.51,69.8,0
"2016-09-08 08:40:49+00",3.5,3.5,,71.7,118,-77,-2,1012.34,69.8,0
"2016-09-08 08:45:49+00",3.8,3.8,,71.8,100,-125,-2,1012.44,69.7,0
"2016-09-08 08:50:49+00",4.3,4.3,,71.8,145,-104,-4,1012.47,69.8,0
"2016-09-08 08:55:49+00",4.4,4.4,,71.8,155,-96,0,1012.46,69.8,0
"2016-09-08 09:00:49+00",5.3,5.3,,71.9,187,-122,-3,1012.33,69.7,0
"2016-09-08 09:05:49+00",6.2,6.2,,71.9,227,-138,5,1012.3,69.7,0
"2016-09-08 09:10:49+00",5.9,6.9,,71.9,195,-162,4,1012.24,69.7,0
"2016-09-08 09:15:49+00",5.3,5.3,,71.8,183,-139,0,1012.16,69.8,0
"2016-09-08 09:20:49+00",6.0,7.0,,71.8,204,-157,-2,1012.23,69.9,0
"2016-09-08 09:25:49+00",7.2,7.2,,71.8,261,-164,1,1012.15,69.8,0
"2016-09-08 09:30:49+00",6.9,7.9,,71.9,275,-134,7,1012.19,69.9,0
"2016-09-08 09:35:49+00",6.1,6.1,,71.8,226,-132,2,1012.26,70.1,0
"2016-09-08 09:40:49+00",5.9,5.9,,71.8,216,-128,8,1012.44,70.1,0
"2016-09-08 09:45:49+00",4.0,4.0,,71.7,125,-104,3,1012.55,70,0
"2016-09-08 09:50:49+00",5.5,5.5,,71.8,198,-122,2,1012.49,70.2,0
"2016-09-08 09:55:49+00",5.4,5.4,,71.9,186,-130,1,1012.46,70.1,0
"2016-09-08 10:00:49+00",5.8,5.8,,72,200,-139,1,1012.39,70,0
"2016-09-08 10:05:49+00",6.1,6.1,,72,215,-140,-1,1012.27,70.1,0
"2016-09-08 10:10:49+00",7.0,7.0,,72,254,-169,1,1012.3,70.2,0
"2016-09-08 10:15:49+00",6.0,7.0,,72,224,-124,5,1012.4,70.3,0
"2016-09-08 10:20:49+00",4.4,5.4,,72.1,164,-88,4,1012.48,70.4,0
"2016-09-08 10:25:49+00",4.4,5.4,,72.1,169,-71,4,1012.63,70.4,0
"2016-09-08 10:30:49+00",3.8,3.8,,72.2,144,-70,3,1012.63,70.3,0
"2016-09-08 10:35:49+00",3.7,4.7,,72.2,148,-45,5,1012.65,70.3,0
"2016-09-08 10:40:49+00",2.1,2.1,,72.2,81,-26,4,1012.86,70.3,0
"2016-09-08 10:45:49+00",3.4,3.4,,72.2,142,4,6,1012.93,70.4,0
"2016-09-08 10:50:49+00",4.7,4.7,,72.2,192,-56,6,1012.92,70.5,0
"2016-09-08 10:55:49+00",2.5,2.5,,72.3,75,-64,7,1012.96,70.6,0
"2016-09-08 11:00:49+00",1.7,1.7,,72.3,46,-44,3,1012.99,70.6,0
"2016-09-08 11:05:49+00",0.8,0.8,,72.4,14,-19,3,1013.04,70.7,0
"2016-09-08 11:10:49+00",0.0,0.0,,72.4,21,-5,2,1013.05,70.8,0
"2016-09-08 11:15:49+00",1.5,1.5,,72.4,55,8,3,1013,70.9,0.2
"2016-09-08 11:20:49+00",1.8,1.8,,72.4,55,-36,1,1013.01,71.1,0
"2016-09-08 11:25:49+00",1.5,1.5,,72.4,8,-57,0,1012.97,71.2,0
"2016-09-08 11:30:49+00",2.1,2.1,,72.4,29,-79,2,1012.95,71.3,2.9
"2016-09-08 11:35:49+00",2.3,3.3,,72.4,14,-86,7,1012.93,71.5,32.3
"2016-09-08 11:40:49+00",2.3,3.3,,72.6,24,-84,0,1012.84,71.9,50.6
"2016-09-08 11:45:49+00",2.7,3.7,,72.8,65,-92,-4,1012.83,72.1,68.7
"2016-09-08 11:50:49+00",3.9,4.9,,73,82,-134,-5,1012.72,72.3,67.8
"2016-09-08 11:55:49+00",4.1,5.1,,73.2,78,-148,-4,1012.74,72.4,79.5
"2016-09-08 12:00:49+00",5.8,6.8,,73.4,133,-206,-10,1012.68,72.6,74.5
"2016-09-08 12:05:49+00",4.0,5.0,,73.5,-7,-147,-19,1012.68,73.1,30.8
"2016-09-08 12:10:49+00",4.8,5.8,,73.4,-73,-168,-38,1012.72,73.2,11.1
"2016-09-08 12:15:49+00",3.8,3.8,,73.3,-71,-126,-33,1012.88,73.5,96.7
"2016-09-08 12:20:49+00",3.5,4.5,,73.3,-87,-124,-4,1012.96,73.9,112
"2016-09-08 12:25:49+00",3.3,4.3,,73.5,-135,-13,0,1012.97,74.8,104.5
"2016-09-08 12:30:49+00",3.8,3.8,,73.5,-147,-72,17,1012.86,75.6,124.4
"2016-09-08 12:35:49+00",4.4,5.4,,73.6,-119,-152,7,1012.77,76.2,53.7
"2016-09-08 12:40:49+00",4.8,5.8,,73.6,-153,-147,17,1013.02,76.9,158.6
"2016-09-08 12:45:49+00",5.3,6.3,,73.6,-203,-118,19,1013.01,77.5,84.2
"2016-09-08 12:50:49+00",5.9,6.9,,73.7,-169,-205,-4,1012.88,77.5,196.6
"2016-09-08 12:55:49+00",4.9,5.9,,73.9,-114,-176,8,1012.92,77.6,222
"2016-09-08 13:00:49+00",5.9,7.9,,74.2,-94,-231,3,1012.92,78.2,255.4
"2016-09-08 13:05:49+00",6.9,7.9,,74.6,-78,-270,-24,1012.99,77.9,246.3
"2016-09-08 13:10:49+00",5.1,6.1,,74.9,-81,-195,7,1012.99,77.6,84.1
"2016-09-08 13:15:49+00",6.6,7.6,,75,-76,-264,-10,1013.24,76.8,77.8
"2016-09-08 13:20:49+00",3.7,4.7,,75.2,-10,-144,22,1013.31,76.6,87.2
"2016-09-08 13:25:49+00",6.1,7.1,,75,-9,-247,-14,1013.24,76,91.5
"2016-09-08 13:30:49+00",6.3,7.3,,75.1,38,-263,-15,1013.24,76,230.9
"2016-09-08 13:35:49+00",8.0,9.0,,75.5,46,-326,0,1013.15,76.6,246.7
"2016-09-08 13:40:49+00",6.0,7.0,,76.1,-46,-236,16,1013.31,77.4,253.6
"2016-09-08 13:45:49+00",6.4,7.4,,76.3,4,-261,-48,1013.24,77.8,259.7
"2016-09-08 13:50:49+00",4.4,5.4,,76.5,-75,-173,8,1013.17,78.5,277.7
"2016-09-08 13:55:49+00",4.3,6.3,,76.5,-33,-162,17,1013.1,79,272.7
"2016-09-08 14:00:49+00",6.4,8.4,,76.7,-182,-228,33,1013.12,79.1,214.1
"2016-09-08 14:05:49+00",5.0,7.0,,76.6,-78,-188,5,1013.12,79.1,303.3
"2016-09-08 14:10:49+00",5.9,7.9,,76.8,-21,-247,-17,1013.17,79.4,271.7
"2016-09-08 14:15:49+00",5.1,6.1,,77.2,20,-206,12,1013.15,79.3,310.9
"2016-09-08 14:20:49+00",8.0,9.0,,77.2,147,-311,-2,1013.09,79,300.6
"2016-09-08 14:25:49+00",8.5,11.5,,77,92,-344,-22,1013,78.9,310.3
"2016-09-08 14:30:49+00",8.1,9.1,,77.3,117,-316,-16,1012.95,79.1,319.1
"2016-09-08 14:35:49+00",8.5,9.5,,77.4,103,-344,7,1012.91,79.1,328.1
"2016-09-08 14:40:49+00",8.2,10.2,,77,99,-328,-21,1012.89,79.2,331.2
"2016-09-08 14:45:49+00",8.8,10.8,,76.8,156,-341,-9,1012.85,78.9,334.8
"2016-09-08 14:50:49+00",7.0,8.0,,76.8,143,-247,10,1012.83,79,348.5
"2016-09-08 14:55:49+00",6.7,7.7,,76.6,121,-263,23,1012.9,79.1,351.2
"2016-09-08 15:00:49+00",5.8,6.8,,76.6,83,-230,-22,1012.82,79.1,357.3
"2016-09-08 15:05:49+00",4.6,6.6,,76.7,-4,-166,17,1012.87,79.2,366.9
"2016-09-08 15:10:49+00",6.9,8.9,,76.6,74,-266,6,1012.75,79,375.8
"2016-09-08 15:15:49+00",6.4,8.4,,76.2,110,-262,15,1012.76,78.7,376.5
"2016-09-08 15:20:49+00",8.0,9.0,,75.9,97,-325,-34,1012.78,78.3,382.5
"2016-09-08 15:25:49+00",7.1,8.1,,75.7,148,-260,-8,1012.74,78.4,392.2
"2016-09-08 15:30:49+00",8.0,9.0,,75.8,109,-321,-14,1012.72,78.5,416.6
"2016-09-08 15:35:49+00",7.2,8.2,,75.8,152,-270,-11,1012.61,78.6,326.3
"2016-09-08 15:40:49+00",7.4,9.4,,75.9,152,-275,5,1012.56,78.8,468.4
"2016-09-08 15:45:49+00",7.8,9.8,,75.9,118,-307,-16,1012.48,78.4,252.1
"2016-09-08 15:50:49+00",8.3,9.3,,76,116,-334,-20,1012.45,78.2,226.9
"2016-09-08 15:55:49+00",9.2,10.2,,75.8,157,-361,-11,1012.48,77.9,299
"2016-09-08 16:00:49+00",9.9,10.9,,75.5,178,-381,-30,1012.4,77.5,385.7
"2016-09-08 16:05:49+00",7.5,8.5,,75.8,119,-285,7,1012.4,77.8,234.7
"2016-09-08 16:10:49+00",8.4,11.4,,75.7,154,-324,3,1012.37,78,277.6
"2016-09-08 16:15:49+00",8.5,9.5,,75.8,104,-347,-6,1012.4,77.9,295.2
"2016-09-08 16:20:49+00",7.4,8.4,,75.4,103,-290,-3,1012.3,77.8,353.5
"2016-09-08 16:25:49+00",8.9,8.9,,75.4,178,-337,-12,1012.29,77.9,314.2
"2016-09-08 16:30:49+00",9.1,10.1,,75.2,163,-356,-10,1012.3,77.5,257.4
"2016-09-08 16:35:49+00",9.1,10.1,,75.1,157,-348,0,1012.32,77.2,184.2
"2016-09-08 16:40:49+00",10.1,11.1,,74.8,152,-407,-19,1012.17,76.7,253.1
"2016-09-08 16:45:49+00",9.5,11.5,,74.9,87,-399,-21,1012.14,76.5,287.7
"2016-09-08 16:50:49+00",9.6,11.6,,74.7,86,-400,-12,1012.11,76.4,223.6
"2016-09-08 16:55:49+00",8.7,10.7,,74.8,75,-358,7,1012,76.5,258.4
"2016-09-08 17:00:49+00",9.3,10.3,,75.1,90,-378,-5,1011.93,76.9,230.7
"2016-09-08 17:05:49+00",8.1,10.1,,75.2,73,-329,18,1011.96,77,253.9
"2016-09-08 17:10:49+00",9.8,10.8,,75.2,116,-402,-8,1011.9,77.1,322.9
"2016-09-08 17:15:49+00",9.0,10.0,,75.3,96,-370,-21,1011.89,77.5,502.6
"2016-09-08 17:20:49+00",8.3,10.3,,76,85,-338,-8,1011.76,78.5,486.9
"2016-09-08 17:25:49+00",8.9,9.9,,76.2,119,-362,7,1011.7,78.9,476.6
"2016-09-08 17:30:49+00",8.3,10.3,,76.6,100,-337,-4,1011.66,79.5,469.6
"2016-09-08 17:35:49+00",9.2,11.2,,76.9,141,-369,3,1011.66,79.6,479.5
"2016-09-08 17:40:49+00",11.2,12.2,,76.5,141,-462,-23,1011.68,79.2,483.3
"2016-09-08 17:45:49+00",9.4,11.4,,77,140,-388,5,1011.68,79.5,483.8
"2016-09-08 17:50:49+00",11.6,12.6,,76.7,172,-471,-10,1011.64,79.2,305.3
"2016-09-08 17:55:49+00",9.6,11.6,,77,101,-396,14,1011.57,79.4,419.4
"2016-09-08 18:00:49+00",11.1,12.1,,76.9,118,-457,-30,1011.55,79.1,408.3
"2016-09-08 18:05:49+00",10.8,12.8,,77,117,-437,1,1011.56,79.5,507.6
"2016-09-08 18:10:49+00",12.7,13.7,,76.8,136,-524,-19,1011.46,79,253.4
"2016-09-08 18:15:49+00",9.5,12.5,,76.9,69,-393,5,1011.49,79,369.6
"2016-09-08 18:20:49+00",12.8,15.8,,77.4,4,-533,-43,1011.34,79.1,346.9
"2016-09-08 18:25:49+00",10.9,13.9,,77.5,82,-455,5,1011.33,79.4,464.2
"2016-09-08 18:30:49+00",9.8,11.8,,77.8,57,-410,-2,1011.18,79.8,435.4
"2016-09-08 18:35:49+00",7.6,10.6,,78.9,-58,-312,33,1011.17,81,426.2
"2016-09-08 18:40:49+00",8.7,10.7,,79.2,-12,-351,-12,1011.14,80.9,421.7
"2016-09-08 18:45:49+00",8.8,11.8,,79,-77,-369,-4,1011.07,80.9,397.6
"2016-09-08 18:50:49+00",9.8,12.8,,79.3,-13,-406,-1,1010.92,81.2,383.9
"2016-09-08 18:55:49+00",11.0,14.0,,79.1,-26,-441,4,1010.88,80.9,375.2
"2016-09-08 19:00:49+00",7.1,9.1,,79.7,-11,-284,36,1010.89,81.2,372.7
"2016-09-08 19:05:49+00",7.3,9.3,,80.3,-76,-283,55,1010.84,81.8,364.5
"2016-09-08 19:10:49+00",13.2,15.2,,80.4,-120,-547,-15,1010.77,82.4,357.9
"2016-09-08 19:15:49+00",11.5,14.5,,80.5,-128,-479,-10,1010.68,82.6,351.5
"2016-09-08 19:20:49+00",9.6,12.6,,80.9,-41,-398,-1,1010.6,82.6,342.2
"2016-09-08 19:25:49+00",11.6,15.6,,80.4,-23,-486,-26,1010.51,82.4,333
"2016-09-08 19:30:49+00",10.6,13.6,,80.6,-120,-431,-2,1010.38,82.4,319.6
"2016-09-08 19:35:49+00",10.5,14.5,,80.8,-112,-429,18,1010.39,82.5,323
"2016-09-08 19:40:49+00",8.7,11.7,,81.2,-79,-367,5,1010.23,82.8,309.2
"2016-09-08 19:45:49+00",13.1,17.1,,80.8,-196,-530,-15,1010.14,82.9,310
"2016-09-08 19:50:49+00",15.1,17.1,,80.5,-250,-595,-23,1010.06,82.9,304.8
"2016-09-08 19:55:49+00",10.4,13.4,,80.6,-155,-428,19,1010.09,83.1,297.2
"2016-09-08 20:00:49+00",11.6,12.6,,81,-181,-466,-12,1009.96,83.3,284.1
"2016-09-08 20:05:49+00",13.5,15.5,,81,-238,-531,-14,1009.91,83.3,274.3
"2016-09-08 20:10:49+00",12.6,15.6,,81.3,-173,-503,-19,1009.83,83.4,263.7
"2016-09-08 20:15:49+00",13.0,16.0,,81.3,-183,-515,-1,1009.79,83.4,265.2
"2016-09-08 20:20:49+00",12.5,14.5,,81.2,-157,-513,5,1009.78,83.2,251.6
"2016-09-08 20:25:49+00",13.0,15.0,,81,-191,-519,-19,1009.73,82.6,242.6
"2016-09-08 20:30:49+00",14.0,16.0,,81.1,-208,-562,-14,1009.69,83,233.4
"2016-09-08 20:35:49+00",14.0,17.0,,81.2,-286,-547,-2,1009.71,83.1,226.4
"2016-09-08 20:40:49+00",11.9,14.9,,81.4,-233,-469,17,1009.62,83.3,215.8
"2016-09-08 20:45:49+00",12.9,15.9,,81.5,-329,-476,0,1009.6,83.6,208.6
"2016-09-08 20:50:49+00",15.8,17.8,,81.7,-414,-580,-11,1009.52,83.9,204.3
"2016-09-08 20:55:49+00",14.5,16.5,,81.5,-351,-539,-14,1009.53,83.7,198.5
"2016-09-08 21:00:49+00",14.5,16.5,,81.5,-359,-548,8,1009.59,83.3,69.4
"2016-09-08 21:05:49+00",14.4,15.4,,81.1,-291,-559,-5,1009.64,82.3,20.6
"2016-09-08 21:10:49+00",16.6,19.6,,81.1,-354,-636,-13,1009.6,82,133
"2016-09-08 21:15:49+00",13.7,15.7,,81.2,-241,-539,6,1009.51,82,30.8
"2016-09-08 21:20:49+00",13.9,15.9,,81,-230,-563,0,1009.6,81.6,21.1
"2016-09-08 21:25:49+00",11.6,14.6,,80.8,-233,-449,2,1009.69,81.3,47.7
"2016-09-08 21:30:49+00",13.2,16.2,,80.5,-252,-515,-4,1009.62,81.1,8.6
"2016-09-08 21:35:49+00",12.8,15.8,,80.5,-319,-480,0,1009.6,80.9,22.9
"2016-09-08 21:40:49+00",13.8,15.8,,80.3,-299,-523,-1,1009.52,80.7,14.7
"2016-09-08 21:45:49+00",14.4,16.4,,80.2,-286,-555,-13,1009.44,80.6,15.7
"2016-09-08 21:50:49+00",15.8,17.8,,80.2,-339,-599,-16,1009.53,80.5,3.8
"2016-09-08 21:55:49+00",12.8,14.8,,80.2,-347,-468,5,1009.51,80.5,22.9
"2016-09-08 22:00:49+00",12.4,14.4,,80.3,-362,-429,1,1009.54,80.7,44.2
"2016-09-08 22:05:49+00",13.1,15.1,,80.7,-407,-444,24,1009.44,81.2,61.3
"2016-09-08 22:10:49+00",12.6,13.6,,81,-362,-446,4,1009.45,81.7,47.4
"2016-09-08 22:15:49+00",12.3,14.3,,81.1,-363,-433,27,1009.38,81.9,44.8
"2016-09-08 22:20:49+00",12.1,15.1,,81.2,-360,-416,17,1009.36,82.2,30.6
"2016-09-08 22:25:49+00",12.2,14.2,,81.2,-353,-425,4,1009.36,82.2,23.3
"2016-09-08 22:30:49+00",11.9,14.9,,81.3,-357,-397,-4,1009.41,82.1,12.2
"2016-09-08 22:35:49+00",12.4,14.4,,81.3,-384,-392,-8,1009.52,82,9.8
"2016-09-08 22:40:49+00",13.4,15.4,,81.2,-448,-381,17,1009.59,82,0.2
"2016-09-08 22:45:49+00",14.1,16.1,,81,-464,-408,7,1009.62,81.9,0
"2016-09-08 22:50:49+00",13.7,16.7,,80.8,-431,-436,3,1009.57,81.7,0
"2016-09-08 22:55:49+00",12.8,14.8,,80.6,-424,-386,9,1009.61,81.3,0
"2016-09-08 23:00:49+00",12.9,14.9,,80.5,-426,-371,4,1009.72,81.1,0
"2016-09-08 23:05:49+00",12.2,15.2,,80.3,-421,-333,8,1009.83,80.8,0
"2016-09-08 23:10:49+00",11.6,13.6,,80.2,-387,-326,5,1009.88,80.5,0
"2016-09-08 23:15:49+00",10.1,12.1,,80.2,-339,-270,5,1009.85,80.3,0
"2016-09-08 23:20:49+00",10.3,12.3,,80.1,-336,-303,20,1009.79,80,0
"2016-09-08 23:25:49+00",11.5,13.5,,80.4,-373,-346,4,1009.82,79.9,0
"2016-09-08 23:30:49+00",11.8,12.8,,80.5,-377,-363,7,1009.89,79.8,0
"2016-09-08 23:35:49+00",11.5,13.5,,80.6,-357,-370,-2,1009.88,79.8,0
"2016-09-08 23:40:49+00",11.1,12.1,,80.5,-335,-376,-1,1009.89,79.7,0
"2016-09-08 23:45:49+00",9.3,11.3,,80.3,-323,-354,-35,1009.88,79.6,0
"2016-09-08 23:50:49+00",8.7,9.7,,80.2,-292,-385,-42,1009.99,79.5,0
"2016-09-08 23:55:49+00",8.0,9.0,,80.2,-271,-366,-43,1009.99,79.4,0
